Location: Dover
(48.8500°N, 53.9833°W)
Time: 04:00:01
(UTC+00:00)

Cosmos 1459 Rocket - Visible Passes

Search period start: 11 February 2026 00:00
Search period end: 21 February 2026 00:00
Orbit: 935 x 999 km, 83.0° (Epoch: 10 February)

Date Brightness Start Highest point End Pass type
(mag) Time Alt. Az. Time Alt. Az. Time Alt. Az.
11 Feb 6.3 08:55:28 10° SE 09:00:06 24° E 09:04:47 10° NNE visible
11 Feb 4.6 21:28:57 10° NNW 21:35:06 65° W 21:41:18 10° S visible
11 Feb 7.2 23:17:23 10° WNW 23:19:03 11° WNW 23:20:44 10° W visible
12 Feb 5.5 09:17:07 10° SSE 09:22:37 39° E 09:28:11 10° NNE visible
12 Feb 5.5 21:52:02 10° NNW 21:57:46 40° W 22:03:33 10° SSW visible
13 Feb 7.2 08:00:27 10° E 08:01:22 10° ENE 08:02:17 10° ENE visible
13 Feb 4.5 09:39:18 10° S 09:45:15 64° E 09:51:17 10° NNE visible
13 Feb 6.4 22:15:23 10° NNW 22:20:18 25° W 22:25:14 10° SW visible
14 Feb 6.7 08:19:43 10° ESE 08:23:38 18° E 08:27:36 10° NE visible
14 Feb 3.9 10:02:00 10° SSW 10:08:02 81° W 10:14:11 10° N visible
14 Feb 7.0 22:39:17 10° NW 22:42:41 15° WNW 22:46:05 10° WSW visible
15 Feb 5.9 08:40:57 10° SE 08:46:03 30° E 08:51:14 10° NNE visible
16 Feb 5.0 09:02:53 10° SSE 09:08:38 49° E 09:14:28 10° NNE visible
16 Feb 6.1 21:38:21 10° NNW 21:43:48 32° W 21:49:16 10° SW visible
17 Feb 6.9 07:44:22 10° ESE 07:47:13 14° ENE 07:50:06 10° NE visible
17 Feb 4.1 09:25:18 10° S 09:31:21 79° E 09:37:28 10° N visible
17 Feb 6.8 22:01:54 10° NW 22:06:16 20° W 22:10:39 10° SW visible
18 Feb 6.3 08:04:59 10° SE 08:09:33 23° E 08:14:11 10° NNE visible
18 Feb 3.9 09:48:12 10° SSW 09:54:12 65° WNW 10:00:19 10° N visible
18 Feb 7.2 22:26:26 10° NW 22:28:34 12° WNW 22:30:43 10° W visible
19 Feb 5.4 08:26:34 10° SSE 08:32:03 37° E 08:37:37 10° NNE visible
20 Feb 4.5 08:48:45 10° S 08:54:41 61° E 09:00:44 10° NNE visible
